Belize, Belize

7:41 AM CST on July 23, 2017 (GMT -0600)
Philip S W Goldson International

Weather History for MZBZ - August, 2013

Change the Weather History Date:

Monday, August 19, 2013

  Actual Average Record
Temperature  
Mean Temperature 82 °F -  
Max Temperature 89 °F 88 °F 91 °F (2001)
Min Temperature 76 °F 75 °F 73 °F (2012)
Cooling Degree Days 18    
Growing Degree Days 32 (Base 50)    
Moisture  
Dew Point 77 °F    
Average Humidity 79    
Maximum Humidity 97    
Minimum Humidity 66    
Precipitation  
Precipitation 0.01 in 0.32 in - ()
Sea Level Pressure  
Sea Level Pressure 29.89 in    
Wind  
Wind Speed 3 mph ()    
Max Wind Speed 12 mph    
Max Gust Speed -    
Visibility 8.2 miles    
Events Thunderstorm    
Averages and records for this station are not official NWS values.
T = Trace of Precipitation, MM = Missing Value Source: Averaged Metar Reports

Daily Weather History Graph

Daily Weather History Graph

Search for Another Location

Airport or City:

Trip Planner

Search our weather history database for the weather conditions in past years. The results will help you decide how hot, cold, wet, or windy it might be!

Date:

Astronomy

Aug. 19, 2013 Rise Set
Actual Time 5:36 AM CST 6:16 PM CST
Civil Twilight 5:14 AM CST 6:38 PM CST
Nautical Twilight 4:48 AM CST 7:04 PM CST
Astronomical Twilight 4:21 AM CST 7:31 PM CST
Moon 5:07 PM CST (8/19) 4:00 AM CST (8/19)
Length of Visible Light 13h 24m
Length of Day
12h 39m
Waxing Gibbous, 97% of the Moon is Illuminated
Aug 19
Waxing Gibbous
Aug 20
Full
Aug 28
Last Quarter
Sep 5
New
Sep 12
First Quarter

Hourly Weather History & Observations

Time (CST) Temp. Heat Index Dew Point Humidity Pressure Visibility Wind Dir Wind Speed Gust Speed Precip Events Conditions
12:00 AM 80 °F - 77 °F 88% 29.93 in 12 mi Calm Calm - -   Scattered Clouds
3:00 AM 78 °F - 77 °F 94% 29.90 in 12 mi Calm Calm - -   Scattered Clouds
5:00 AM 77.0 °F - 75.2 °F 94% 29.89 in 6.2 mi West 3.5 mph - N/A   Partly Cloudy
6:00 AM 76 °F - 75 °F 97% 29.90 in 14 mi Calm Calm - -   Partly Cloudy
6:00 AM 77.0 °F - 75.2 °F 94% 29.90 in 6.2 mi Calm Calm - N/A   Partly Cloudy
7:00 AM 78.8 °F - 77.0 °F 94% 29.90 in 6.2 mi North 3.5 mph - N/A   Partly Cloudy
8:00 AM 84.2 °F 96.1 °F 78.8 °F 84% 29.91 in 6.2 mi Calm Calm - N/A   Scattered Clouds
9:00 AM 86 °F - 77 °F 69% 29.92 in 15 mi ESE 3.5 mph - -   Partly Cloudy
9:00 AM 86.0 °F 96.9 °F 77.0 °F 74% 29.91 in 6.2 mi ESE 3.5 mph - N/A   Scattered Clouds
10:00 AM 87.8 °F 99.7 °F 77.0 °F 70% 29.92 in 6.2 mi East 6.9 mph - N/A   Scattered Clouds
11:00 AM 87.8 °F 99.7 °F 77.0 °F 70% 29.92 in 6.2 mi ENE 9.2 mph - N/A   Scattered Clouds
12:00 PM 87.8 °F 99.7 °F 77.0 °F 70% 29.91 in 6.2 mi East 9.2 mph - N/A Thunderstorm Thunderstorm
1:00 PM 86.0 °F 99.3 °F 78.8 °F 79% 29.88 in 6.2 mi East 8.1 mph - N/A   Scattered Clouds
2:00 PM 87.8 °F 99.7 °F 77.0 °F 70% 29.86 in 6.2 mi ENE 11.5 mph - N/A   Scattered Clouds
3:00 PM 87.8 °F 97.6 °F 75.2 °F 66% 29.85 in 6.2 mi East 10.4 mph - N/A   Mostly Cloudy
4:00 PM 87.8 °F 99.7 °F 77.0 °F 70% 29.83 in 6.2 mi East 9.2 mph - N/A   Mostly Cloudy
5:00 PM 86.0 °F 96.9 °F 77.0 °F 74% 29.83 in 6.2 mi East 9.2 mph - N/A   Scattered Clouds
6:00 PM 85 °F - 76 °F 69% 29.87 in 12 mi East 5.8 mph - -   Partly Cloudy
6:00 PM 84.2 °F 94.1 °F 77.0 °F 79% 29.86 in 6.2 mi East 5.8 mph - N/A   Scattered Clouds
9:00 PM 82 °F - 76 °F 77% 29.91 in 12 mi East 4.6 mph - -   Scattered Clouds